COSMOS 2529 (757)

Last updated on Sun Mar 01 2026 00:03:27 GMT+0000 (Coordinated Universal Time)

1 43687U 18086A 26058.37448306 .00000008 00000+0 00000+0 0 9993 2 43687 64.2955 196.2992 0007959 253.0448 106.8346 2.13101880 56941
UTC large
Height (km)
Speed (km/s)
/
Latitude / Longitude
Inclination (degrees)
Orbital Period (minutes)
Azimuth
Elevation
Range (km)
Doppler Factor

Next 0 passes for location: London (51.5072 / 0.1276)

Sorry there are no passes over London.